Regional Weather Roundup
Issued by NWS

Home | Current Version | Previous Version | Graphics & Text | Print | Product List | Glossary On
Versions: 1 2 3 4 5 6 7 8 9 10 11 12 13 14 15 16 17 18 19 20 21 22 23 24 25 26 27 28 29 30 31 32 33 34 35 36 37 38 39 40 41 42 43 44 45 46 47 48 49 50
755
ASUS44 KMEG 082310
RWRTN
TENNESSEE HOURLY STATE WEATHER ROUNDUP
NATIONAL WEATHER SERVICE MEMPHIS TN
500 PM CST THU DEC 08 2016

TNZ002-004-019-021-049-052-054-088>092-090000-
WEST TENNESSEE

CITY           SKY/WX    TMP DP  RH WIND       PRES   REMARKS
MEMPHIS INTL   MOCLDY    34  16  47 NW9G17    30.52S WCI  27
NWS MEMPHIS      N/A     34 N/A N/A MISG        N/A
JACKSON        CLOUDY    33  17  51 NW8       30.51R WCI  26
DYERSBURG      PTCLDY    32  16  51 N3        30.52R
UNION CITY     CLEAR     28  16  59 CALM      30.49R
PARIS          CLEAR     27  12  54 NW3       30.48R
HUNTINGDON     CLEAR     32  16  51 CALM      30.48R
LEXINGTON      CLEAR     32  12  43 NW5       30.47R WCI  27
$$

TNZ008-025-027-028-033-062-065-066-090000-
NORTH MIDDLE TENNESSEE

CITY           SKY/WX    TMP DP  RH WIND       PRES   REMARKS
NASHVILLE      MOCLDY    34  14  43 N12       30.44R WCI  25
PORTLAND       CLEAR     30  16  55 NW8       30.43R WCI  23
CLARKSVILLE    CLEAR     31  13  47 W7        30.46R WCI  24
SMYRNA         CLEAR     35  16  45 N14       30.44R WCI  26
GALLATIN       CLEAR     32  16  51 VRB5      30.47R WCI  27
CROSSVILLE     CLEAR     31  17  56 NW9       30.32R WCI  23
$$

TNZ061-075-076-078-094-096-097-090000-
SOUTH MIDDLE TENNESSEE

CITY           SKY/WX    TMP DP  RH WIND       PRES   REMARKS
FAYETTEVILLE   CLEAR     37  18  44 NW7       30.39R WCI  32
TULLAHOMA      CLEAR     32  12  43 NW5       30.39R WCI  27
WINCHESTER     CLEAR     36  16  44 NW5       30.38R WCI  32
MCMINNVILLE    CLEAR     34  14  44 CALM        N/A
COLUMBIA       CLEAR     36  12  38 NW6       30.42R WCI  31
SHELBYVILLE    CLEAR     34  19  55 N6        30.42R WCI  29
$$

TNZ017-018-042-046-047-090000-
NORTHEAST TENNESSEE

CITY           SKY/WX    TMP DP  RH WIND       PRES   REMARKS
TRI CITIES     PTCLDY    36  13  38 W9        30.25R WCI  29
ELIZABETHTON   DRIZZLE   37  10  32 W8G15     30.23R WCI  31
$$

TNZ012-013-036-069-073-074-090000-
CENTRAL EAST TENNESSEE

CITY           SKY/WX    TMP DP  RH WIND       PRES   REMARKS
KNOXVILLE      MOCLDY    40  16  37 W7        30.31R
OAK RIDGE      CLEAR     39  12  33 W3        30.34R
DOWNTOWN KNOXV CLEAR     39  21  48 CALM      30.33R
GATLINBURG     CLEAR     37  14  38 W5        30.30R WCI  34
MORRISTOWN     CLEAR     37  10  32 NW12      30.28R WCI  30
JACKSBORO      CLEAR     36  16  44 N5G12     30.36R WCI  32
$$

TNZ083-085-099-090000-
SOUTHEAST TENNESSEE

CITY           SKY/WX    TMP DP  RH WIND       PRES   REMARKS
CHATTANOOGA    PTCLDY    39  16  39 NW8       30.37R WCI  33
$$

SKY/WX REPORTED AS FAIR MEANS FEW OR NO CLOUDS BELOW
12 THOUSAND FEET.





USA.gov is the U.S. government's official web portal to all federal, state and local government web resources and services.